sat.trackr.live / text

‹ back to catalog

STARLINK-6033

NORAD 56322 · 2023-058F

PAYLOAD ACTIVE UNKNOWN

§ Identity

Operator
Country
US
Launch date
2023-04-27
Launch site
AFWTR
Launch vehicle
Mass (kg)
RCS (m²)

Purposes: comms

External: N2YO · Heavens-Above · Gunter

§ Orbital elements

Epoch: 2026-09-20T22:00:03.000096Z

Period
94.70 min
Inclination
97.2835°
Eccentricity
0.0002779
Mean motion
15.20606567 rev/d
Perigee alt
502.1 km
Apogee alt
505.9 km
Semi-major
6,882.1 km
B*
3.5211e-3
RAAN
257.8570°
Arg perigee
83.9052°
Mean anomaly
218.3214°
Rev number
548

§ Raw data

STARLINK-60331 56322U 23058F   26263.91670139  .00077882  00000+0  35211-2 0  99962 56322  97.2835 257.8570 0002779  83.9052 218.3214 15.20606567  5486

JSON: /api/v1/satellites/56322 · /tle

For live sub-satellite position, see the globe view (requires WebGL).

§ Visibility from observer

Set your observer location to see the next 7 days of passes ≥ 10°. The values pass through the URL so the page stays shareable.

No JS? Fill the form by hand. The geolocation button needs JavaScript.